#timestamp,LO_Frequency,Hit 
1501354815.0,286047011.7,N
1501354815.9,286047011.7,N
1501354835.8,286047011.9,N
1501354855.6,286047011.3,N
1501354875.4,286047013.7,N
1501354895.3,286047012.2,N
1501354915.1,286047009.4,N
1501354916.0,286047009.4,N
1501354935.8,286047009.6,N
1501354955.7,286047009.5,N
1501354975.5,286047012.1,N
1501354995.3,286047012.3,N
1501355015.2,286047013.7,N
1501355035.9,286047011.2,N
1501355055.7,286047009.4,N
1501355075.6,286047010.3,N
1501355095.4,286047007.9,N
1501355115.2,286047010.1,N
1501355135.1,286047010.9,N
1501355136.0,286047010.9,N
1501355155.8,286047011.2,N
1501355175.6,286047010.5,N
1501355195.4,286047012.4,N
1501355215.3,286047010.7,N
1501355235.1,286047009.7,N
1501355255.8,286047011.7,N
1501355275.7,286047011.0,N
1501355295.5,286047011.5,N
1501355315.3,286047011.2,N
1501355335.2,286047000.1,N
1501355355.9,286046998.7,N
1501355375.7,286047000.1,N
1501355395.6,286047000.1,N
1501355415.4,286047002.8,N
1501355435.2,286047001.9,N
1501355455.1,286046999.8,N
1501355456.0,286046999.8,N
1501355475.8,286047002.5,N
1501355495.6,286047002.1,N
1501355515.4,286046999.8,N
1501355535.3,286046999.8,N
1501355555.1,286046999.9,N
1501355575.8,286047000.4,N
1501355595.7,286047000.2,N
1501355615.5,286047002.4,N
1501355635.3,286047000.1,N
1501355655.2,286047000.3,N
1501355675.9,286046998.4,N
1501355695.7,286047002.7,N
1501355715.6,286047002.7,N
1501355735.4,286047001.9,N
1501355755.2,286047001.7,N
1501355775.0,286047000.7,N
1501355776.0,286047000.7,N
1501355795.8,286047000.6,N
1501355815.6,286046999.7,N
1501355835.4,286047002.3,N
1501355855.3,286046999.8,N
1501355875.1,286047002.5,N
1501355895.8,286047002.5,N
1501355915.7,286047001.6,N
1501355935.5,286047001.7,N
1501355955.3,286047002.1,N
1501355975.2,286047001.9,N
1501355995.9,286046999.7,N
1501356015.7,286047004.0,N
1501356035.6,286047005.5,N
1501356055.4,286047003.0,N
1501356075.2,286047004.0,N
1501356095.0,286047003.9,N
1501356095.9,286047003.9,N
1501356115.8,286047001.5,N
1501356135.6,286047001.7,N
1501356155.4,286047002.9,N
1501356175.3,286047001.3,N
1501356195.1,286047001.6,N
1501356215.8,286047001.6,N
1501356235.7,286047001.6,N
1501356255.5,286047002.4,N
1501356275.3,286047000.8,N
1501356295.2,286047001.1,N
1501356315.9,286046999.9,N
1501356335.7,286046999.7,N
1501356355.6,286046999.7,N
1501356375.4,286047002.7,N
1501356395.2,286047002.4,N
1501356415.0,286047001.9,N
1501356416.0,286047001.9,N
1501356435.8,286047004.1,N
1501356455.6,286047003.3,N
1501356475.4,286047003.5,N
1501356495.3,286047003.3,N
1501356515.1,286047003.8,N
1501356535.8,286047001.9,N
1501356555.7,286047004.4,N
1501356575.5,286047001.6,N
1501356595.3,286047004.0,N
1501356615.2,286047005.6,N
1501356635.9,286047003.0,N
1501356655.7,286047005.3,N
1501356675.6,286047005.9,N
1501356695.4,286047005.7,N
1501356715.2,286047004.3,N
1501356735.1,286047002.4,N
1501356736.0,286047002.4,N
1501356755.8,286047004.0,N
1501356775.6,286047003.2,N
1501356795.4,286047004.0,N
1501356815.3,286047003.4,N
1501356835.1,286047005.9,N
1501356855.8,286047003.3,N
1501356875.7,286047005.5,N
1501356895.5,286047005.3,N
1501356915.3,286047002.9,N
1501356935.2,286047004.8,N
1501356955.9,286047006.8,N
1501356975.7,286047007.1,N
1501356995.6,286047005.5,N
1501357015.4,286047005.2,N
1501357035.2,286047003.5,N
1501357055.1,286047003.9,N
1501357056.0,286047003.9,N
1501357075.8,286047002.5,N
1501357095.6,286047002.6,N
1501357115.5,286047001.7,N
1501357135.3,286047006.0,N
1501357155.1,286047005.8,N
1501357175.8,286047003.7,N
1501357195.7,286047001.6,N
1501357215.5,286047004.3,N
1501357235.3,286047004.0,N
1501357255.2,286047002.9,N
1501357275.0,286047004.9,N
1501357275.9,286047004.9,N
1501357295.7,286047006.5,N
1501357315.6,286047004.9,N
1501357335.4,286047005.1,N
1501357355.2,286046971.0,N
1501357375.1,286047006.3,N
1501357376.0,286047006.3,N
1501357395.8,286047006.2,N
1501357415.6,286047008.3,N
1501357435.5,286047009.2,N
1501357455.3,286047007.1,N
1501357475.1,286047006.7,N
1501357495.9,286047006.3,N
1501357515.7,286047008.8,N
1501357535.5,286047007.7,N
1501357555.3,286047010.2,N
1501357575.2,286047010.5,N
1501357595.0,286047008.0,N
1501357595.9,286047008.0,N
1501357615.7,286047008.5,N
1501357635.6,286047010.1,N
1501357655.4,286047012.4,N
1501357675.2,286047012.5,N
1501357695.1,286047012.7,N
1501357696.0,286047012.7,N
1501357715.8,286047012.5,N
1501357735.6,286047012.9,N
1501357755.5,286047011.8,N
1501357775.3,286047013.7,N
1501357795.1,286047011.8,N
1501357815.9,286047009.9,N
1501357835.7,286047011.1,N
1501357855.5,286047015.6,N
1501357875.4,286047015.9,N
1501357895.2,286047015.7,N
1501357915.0,286047016.9,N
1501357915.9,286047016.9,N
1501357935.7,286047014.7,N
1501357955.6,286047017.1,N
1501357975.4,286047015.7,N
1501357995.2,286047020.0,N
1501358015.1,286047019.7,N
1501358016.0,286047019.7,N
1501358035.8,286047022.0,N
1501358055.6,286047022.8,N
1501358075.5,286047023.3,N
1501358095.3,286047018.9,N
1501358115.1,286047019.5,N
1501358135.9,286047020.0,N
1501358155.7,286047021.5,N
1501358175.5,286047020.8,N
1501358195.4,286047021.3,N
1501358215.2,286047019.5,N
1501358235.0,286047020.6,N
1501358235.9,286047020.6,N
1501358255.7,286047019.5,N
1501358275.6,286047019.1,N
1501358295.4,286047017.8,N
1501358315.2,286047020.4,N
1501358335.1,286047017.9,N
1501358336.0,286047017.9,N
1501358355.8,286047018.1,N
1501358375.6,286047016.3,N
1501358395.5,286047018.8,N
